Time,TemperatureF,DewpointF,PressureIn,WindDirection,WindDirectionDegrees,WindSpeedMPH,WindSpeedGustMPH,Humidity,HourlyPrecipIn,Conditions,Clouds,dailyrainin,SoftwareType,DateUTC
2013-05-25 00:03:00,66.0,64.0,30.14,NNE,27,3.0,6.0,91,-99.99,,,-99.99,,2013-05-25 04:03:00,
2013-05-25 00:13:00,66.0,64.0,30.14,NNE,27,3.0,6.0,91,-99.99,,,-99.99,,2013-05-25 04:13:00,
2013-05-25 00:23:00,69.0,64.0,30.14,NE,51,4.0,10.0,84,-99.99,,,-99.99,,2013-05-25 04:23:00,
2013-05-25 00:33:00,69.0,64.0,30.14,NE,51,4.0,10.0,84,-99.99,,,-99.99,,2013-05-25 04:33:00,
2013-05-25 00:43:00,69.0,64.0,30.14,NE,45,3.0,6.0,84,-99.99,,,-99.99,,2013-05-25 04:43:00,
2013-05-25 00:53:00,69.0,64.0,30.14,NE,45,3.0,6.0,84,-99.99,,,-99.99,,2013-05-25 04:53:00,
2013-05-25 01:02:00,67.0,64.0,30.14,East,96,2.0,3.0,88,-99.99,,,-99.99,,2013-05-25 05:02:00,
2013-05-25 01:12:00,67.0,64.0,30.14,East,96,2.0,3.0,88,-99.99,,,-99.99,,2013-05-25 05:12:00,
2013-05-25 01:22:00,66.0,63.0,30.14,SE,140,1.0,2.0,90,-99.99,,,-99.99,,2013-05-25 05:22:00,
2013-05-25 01:32:00,66.0,63.0,30.14,WNW,303,1.0,2.0,93,-99.99,,,-99.99,,2013-05-25 05:32:00,
2013-05-25 01:43:00,66.0,63.0,30.14,WNW,303,1.0,2.0,93,-99.99,,,-99.99,,2013-05-25 05:43:00,
2013-05-25 01:52:00,66.0,63.0,30.14,WNW,303,1.0,2.0,93,-99.99,,,-99.99,,2013-05-25 05:52:00,
2013-05-25 02:02:00,65.0,63.0,30.13,West,270,1.0,2.0,94,-99.99,,,-99.99,,2013-05-25 06:02:00,
2013-05-25 02:12:00,65.0,63.0,30.13,West,270,1.0,2.0,94,-99.99,,,-99.99,,2013-05-25 06:12:00,
2013-05-25 02:22:00,64.0,63.0,30.12,WNW,295,1.0,2.0,95,-99.99,,,-99.99,,2013-05-25 06:22:00,
2013-05-25 02:32:00,64.0,63.0,30.12,WNW,295,1.0,2.0,95,-99.99,,,-99.99,,2013-05-25 06:32:00,
2013-05-25 02:42:00,64.0,63.0,30.12,SW,225,1.0,2.0,95,-99.99,,,-99.99,,2013-05-25 06:42:00,
2013-05-25 02:52:00,64.0,63.0,30.12,SW,225,1.0,2.0,95,-99.99,,,-99.99,,2013-05-25 06:52:00,
2013-05-25 03:02:00,63.0,62.0,30.12,SW,218,1.0,2.0,96,-99.99,,,-99.99,,2013-05-25 07:02:00,
2013-05-25 03:11:00,63.0,62.0,30.12,WSW,258,1.0,1.0,96,-99.99,,,-99.99,,2013-05-25 07:11:00,
2013-05-25 03:22:00,63.0,62.0,30.12,WSW,258,1.0,1.0,96,-99.99,,,-99.99,,2013-05-25 07:22:00,
2013-05-25 03:32:00,63.0,62.0,30.12,WSW,258,1.0,1.0,96,-99.99,,,-99.99,,2013-05-25 07:32:00,
2013-05-25 03:42:00,63.0,61.0,30.12,SSE,165,0.0,1.0,96,-99.99,,,-99.99,,2013-05-25 07:42:00,
2013-05-25 03:52:00,63.0,61.0,30.12,SSE,165,0.0,1.0,96,-99.99,,,-99.99,,2013-05-25 07:52:00,
2013-05-25 04:02:00,62.0,61.0,30.11,WNW,292,1.0,2.0,96,-99.99,,,-99.99,,2013-05-25 08:02:00,
2013-05-25 04:11:00,62.0,61.0,30.11,WNW,292,1.0,2.0,96,-99.99,,,-99.99,,2013-05-25 08:11:00,
2013-05-25 04:23:00,62.0,62.0,30.11,SSE,149,1.0,2.0,97,-99.99,,,-99.99,,2013-05-25 08:23:00,
2013-05-25 04:32:00,62.0,62.0,30.11,SSE,149,1.0,2.0,97,-99.99,,,-99.99,,2013-05-25 08:32:00,
2013-05-25 04:42:00,62.0,61.0,30.11,WNW,290,1.0,2.0,96,-99.99,,,-99.99,,2013-05-25 08:42:00,
2013-05-25 04:52:00,62.0,61.0,30.11,WNW,290,1.0,2.0,96,-99.99,,,-99.99,,2013-05-25 08:52:00,
2013-05-25 05:02:00,62.0,61.0,30.11,NE,50,1.0,2.0,97,-99.99,,,-99.99,,2013-05-25 09:02:00,
2013-05-25 05:11:00,62.0,61.0,30.11,NE,50,1.0,2.0,97,-99.99,,,-99.99,,2013-05-25 09:11:00,
2013-05-25 05:21:00,62.0,61.0,30.11,ESE,113,2.0,4.0,97,-99.99,,,-99.99,,2013-05-25 09:21:00,
2013-05-25 05:33:00,62.0,61.0,30.11,ESE,113,2.0,4.0,97,-99.99,,,-99.99,,2013-05-25 09:33:00,
2013-05-25 05:43:00,61.0,61.0,30.11,NNE,31,2.0,4.0,97,-99.99,,,-99.99,,2013-05-25 09:43:00,
2013-05-25 05:53:00,62.0,61.0,30.11,NE,38,2.0,3.0,97,-99.99,,,-99.99,,2013-05-25 09:53:00,
2013-05-25 06:03:00,62.0,61.0,30.11,NE,38,2.0,3.0,97,-99.99,,,-99.99,,2013-05-25 10:03:00,
2013-05-25 06:13:00,62.0,61.0,30.11,NE,38,2.0,3.0,97,-99.99,,,-99.99,,2013-05-25 10:13:00,
2013-05-25 06:23:00,61.0,61.0,30.11,ESE,113,1.0,2.0,97,-99.99,,,-99.99,,2013-05-25 10:23:00,
2013-05-25 06:33:00,61.0,61.0,30.11,ESE,113,1.0,2.0,97,-99.99,,,-99.99,,2013-05-25 10:33:00,
2013-05-25 06:42:00,61.0,60.0,30.12,WSW,255,1.0,2.0,97,-99.99,,,-99.99,,2013-05-25 10:42:00,
2013-05-25 06:52:00,61.0,60.0,30.12,WSW,255,1.0,2.0,97,-99.99,,,-99.99,,2013-05-25 10:52:00,
2013-05-25 07:03:00,61.0,61.0,30.13,ENE,69,2.0,3.0,97,-99.99,,,-99.99,,2013-05-25 11:03:00,
2013-05-25 07:12:00,61.0,61.0,30.13,ENE,69,2.0,3.0,97,-99.99,,,-99.99,,2013-05-25 11:12:00,
2013-05-25 07:22:00,61.0,60.0,30.14,NNE,31,2.0,4.0,97,-99.99,,,-99.99,,2013-05-25 11:22:00,
2013-05-25 07:32:00,61.0,61.0,30.14,ENE,57,1.0,2.0,97,-99.99,,,-99.99,,2013-05-25 11:32:00,
2013-05-25 07:42:00,61.0,61.0,30.14,ENE,57,1.0,2.0,97,-99.99,,,-99.99,,2013-05-25 11:42:00,
2013-05-25 07:52:00,61.0,61.0,30.14,ENE,57,1.0,2.0,97,-99.99,,,-99.99,,2013-05-25 11:52:00,
2013-05-25 08:02:00,65.0,64.0,30.15,NE,35,2.0,4.0,97,-99.99,,,-99.99,,2013-05-25 12:02:00,
2013-05-25 08:12:00,65.0,64.0,30.15,NE,35,2.0,4.0,97,-99.99,,,-99.99,,2013-05-25 12:12:00,
2013-05-25 08:22:00,68.0,67.0,30.15,NE,48,2.0,5.0,97,-99.99,,,-99.99,,2013-05-25 12:22:00,
2013-05-25 08:32:00,68.0,67.0,30.15,NE,48,2.0,5.0,97,-99.99,,,-99.99,,2013-05-25 12:32:00,
2013-05-25 08:42:00,70.0,68.0,30.15,ENE,66,3.0,6.0,91,-99.99,,,-99.99,,2013-05-25 12:42:00,
2013-05-25 08:52:00,70.0,68.0,30.15,ENE,66,3.0,6.0,91,-99.99,,,-99.99,,2013-05-25 12:52:00,
2013-05-25 09:02:00,76.0,69.0,30.16,ENE,64,4.0,9.0,79,-99.99,,,-99.99,,2013-05-25 13:02:00,
2013-05-25 09:11:00,76.0,69.0,30.16,ENE,64,4.0,9.0,79,-99.99,,,-99.99,,2013-05-25 13:11:00,
2013-05-25 09:22:00,77.0,70.0,30.17,ENE,61,6.0,13.0,80,-99.99,,,-99.99,,2013-05-25 13:22:00,
2013-05-25 09:32:00,77.0,70.0,30.17,ENE,61,6.0,13.0,80,-99.99,,,-99.99,,2013-05-25 13:32:00,
2013-05-25 09:42:00,77.0,71.0,30.18,ENE,67,7.0,13.0,80,-99.99,,,-99.99,,2013-05-25 13:42:00,
2013-05-25 09:52:00,77.0,71.0,30.18,ENE,67,7.0,13.0,80,-99.99,,,-99.99,,2013-05-25 13:52:00,
2013-05-25 10:02:00,80.0,72.0,30.19,ENE,78,8.0,16.0,76,-99.99,,,-99.99,,2013-05-25 14:02:00,
2013-05-25 10:11:00,81.0,72.0,30.19,ENE,61,7.0,15.0,75,-99.99,,,-99.99,,2013-05-25 14:11:00,
2013-05-25 10:22:00,81.0,72.0,30.19,ENE,61,7.0,15.0,75,-99.99,,,-99.99,,2013-05-25 14:22:00,
2013-05-25 10:32:00,81.0,72.0,30.19,ENE,61,7.0,15.0,75,-99.99,,,-99.99,,2013-05-25 14:32:00,
2013-05-25 10:42:00,81.0,72.0,30.20,ENE,71,7.0,14.0,73,-99.99,,,-99.99,,2013-05-25 14:42:00,
2013-05-25 10:52:00,81.0,72.0,30.20,ENE,71,7.0,14.0,73,-99.99,,,-99.99,,2013-05-25 14:52:00,
2013-05-25 11:02:00,82.0,72.0,30.20,East,82,8.0,15.0,70,-99.99,,,-99.99,,2013-05-25 15:02:00,
2013-05-25 11:12:00,82.0,72.0,30.20,East,82,8.0,15.0,70,-99.99,,,-99.99,,2013-05-25 15:12:00,
2013-05-25 11:22:00,83.0,72.0,30.21,East,91,7.0,16.0,67,-99.99,,,-99.99,,2013-05-25 15:22:00,
2013-05-25 11:33:00,83.0,72.0,30.21,East,91,7.0,16.0,67,-99.99,,,-99.99,,2013-05-25 15:33:00,
2013-05-25 11:43:00,83.0,71.0,30.21,ENE,78,9.0,16.0,66,-99.99,,,-99.99,,2013-05-25 15:43:00,
2013-05-25 11:53:00,85.0,71.0,30.21,ENE,66,7.0,15.0,62,-99.99,,,-99.99,,2013-05-25 15:53:00,
2013-05-25 12:03:00,85.0,71.0,30.21,ENE,66,7.0,15.0,62,-99.99,,,-99.99,,2013-05-25 16:03:00,
2013-05-25 12:12:00,85.0,71.0,30.21,ENE,66,7.0,15.0,62,-99.99,,,-99.99,,2013-05-25 16:12:00,
2013-05-25 12:23:00,84.0,70.0,30.21,ENE,62,8.0,15.0,62,-99.99,,,-99.99,,2013-05-25 16:23:00,
2013-05-25 12:32:00,84.0,70.0,30.21,ENE,62,8.0,15.0,62,-99.99,,,-99.99,,2013-05-25 16:32:00,
2013-05-25 12:42:00,86.0,70.0,30.21,East,82,7.0,16.0,57,-99.99,,,-99.99,,2013-05-25 16:42:00,
2013-05-25 12:52:00,86.0,70.0,30.21,East,82,7.0,16.0,57,-99.99,,,-99.99,,2013-05-25 16:52:00,
2013-05-25 13:03:00,87.0,69.0,30.21,East,88,7.0,17.0,55,-99.99,,,-99.99,,2013-05-25 17:03:00,
2013-05-25 13:11:00,87.0,69.0,30.21,East,88,7.0,17.0,55,-99.99,,,-99.99,,2013-05-25 17:11:00,
2013-05-25 13:22:00,86.0,69.0,30.21,East,82,8.0,17.0,57,-99.99,,,-99.99,,2013-05-25 17:22:00,
2013-05-25 13:32:00,86.0,69.0,30.21,East,82,8.0,17.0,57,-99.99,,,-99.99,,2013-05-25 17:32:00,
2013-05-25 13:42:00,87.0,70.0,30.21,East,92,8.0,15.0,56,-99.99,,,-99.99,,2013-05-25 17:42:00,
2013-05-25 13:52:00,87.0,70.0,30.21,East,92,8.0,15.0,56,-99.99,,,-99.99,,2013-05-25 17:52:00,
2013-05-25 14:02:00,88.0,69.0,30.20,ENE,73,8.0,16.0,53,-99.99,,,-99.99,,2013-05-25 18:02:00,
2013-05-25 14:11:00,88.0,69.0,30.20,ENE,73,8.0,16.0,53,-99.99,,,-99.99,,2013-05-25 18:11:00,
2013-05-25 14:22:00,88.0,69.0,30.19,East,81,8.0,17.0,51,-99.99,,,-99.99,,2013-05-25 18:22:00,
2013-05-25 14:32:00,89.0,68.0,30.19,ENE,71,8.0,13.0,50,-99.99,,,-99.99,,2013-05-25 18:32:00,
2013-05-25 14:42:00,89.0,68.0,30.19,ENE,71,8.0,13.0,50,-99.99,,,-99.99,,2013-05-25 18:42:00,
2013-05-25 14:52:00,89.0,68.0,30.19,ENE,71,8.0,13.0,50,-99.99,,,-99.99,,2013-05-25 18:52:00,
2013-05-25 15:02:00,89.0,67.0,30.18,ENE,59,7.0,15.0,48,-99.99,,,-99.99,,2013-05-25 19:02:00,
2013-05-25 15:11:00,89.0,67.0,30.18,ENE,59,7.0,15.0,48,-99.99,,,-99.99,,2013-05-25 19:11:00,
2013-05-25 15:22:00,88.0,67.0,30.18,East,94,7.0,15.0,48,-99.99,,,-99.99,,2013-05-25 19:22:00,
2013-05-25 15:32:00,88.0,67.0,30.18,East,94,7.0,15.0,48,-99.99,,,-99.99,,2013-05-25 19:32:00,
2013-05-25 15:42:00,88.0,67.0,30.17,East,84,7.0,17.0,49,-99.99,,,-99.99,,2013-05-25 19:42:00,
2013-05-25 15:52:00,88.0,67.0,30.17,East,84,7.0,17.0,49,-99.99,,,-99.99,,2013-05-25 19:52:00,
2013-05-25 16:02:00,90.0,67.0,30.16,East,91,8.0,16.0,47,-99.99,,,-99.99,,2013-05-25 20:02:00,
2013-05-25 16:11:00,89.0,66.0,30.16,ENE,65,6.0,11.0,47,-99.99,,,-99.99,,2013-05-25 20:11:00,
2013-05-25 16:22:00,89.0,66.0,30.16,ENE,65,6.0,11.0,47,-99.99,,,-99.99,,2013-05-25 20:22:00,
2013-05-25 16:32:00,89.0,66.0,30.16,ENE,65,6.0,11.0,47,-99.99,,,-99.99,,2013-05-25 20:32:00,
2013-05-25 16:42:00,90.0,66.0,30.15,ENE,64,8.0,14.0,45,-99.99,,,-99.99,,2013-05-25 20:42:00,
2013-05-25 16:52:00,90.0,66.0,30.15,ENE,64,8.0,14.0,45,-99.99,,,-99.99,,2013-05-25 20:52:00,
2013-05-25 17:02:00,89.0,66.0,30.14,ENE,69,8.0,15.0,47,-99.99,,,-99.99,,2013-05-25 21:02:00,
2013-05-25 17:11:00,89.0,66.0,30.14,ENE,69,8.0,15.0,47,-99.99,,,-99.99,,2013-05-25 21:11:00,
2013-05-25 17:22:00,89.0,66.0,30.14,ENE,68,9.0,15.0,47,-99.99,,,-99.99,,2013-05-25 21:22:00,
2013-05-25 17:33:00,89.0,66.0,30.14,ENE,68,9.0,15.0,47,-99.99,,,-99.99,,2013-05-25 21:33:00,
2013-05-25 17:43:00,88.0,66.0,30.14,ENE,68,7.0,14.0,48,-99.99,,,-99.99,,2013-05-25 21:43:00,
2013-05-25 17:53:00,88.0,66.0,30.14,ENE,68,7.0,14.0,48,-99.99,,,-99.99,,2013-05-25 21:53:00,
2013-05-25 18:03:00,87.0,66.0,30.14,ENE,76,9.0,18.0,49,-99.99,,,-99.99,,2013-05-25 22:03:00,
2013-05-25 18:13:00,87.0,66.0,30.14,ENE,76,9.0,18.0,49,-99.99,,,-99.99,,2013-05-25 22:13:00,
2013-05-25 18:23:00,87.0,66.0,30.14,ENE,73,9.0,20.0,49,-99.99,,,-99.99,,2013-05-25 22:23:00,
2013-05-25 18:32:00,87.0,66.0,30.14,ENE,59,9.0,19.0,49,-99.99,,,-99.99,,2013-05-25 22:32:00,
2013-05-25 18:42:00,87.0,66.0,30.14,ENE,59,9.0,19.0,49,-99.99,,,-99.99,,2013-05-25 22:42:00,
2013-05-25 18:52:00,86.0,65.0,30.14,ENE,59,8.0,16.0,50,-99.99,,,-99.99,,2013-05-25 22:52:00,
2013-05-25 19:02:00,86.0,65.0,30.14,ENE,59,8.0,16.0,50,-99.99,,,-99.99,,2013-05-25 23:02:00,
2013-05-25 19:12:00,86.0,65.0,30.14,ENE,59,8.0,16.0,50,-99.99,,,-99.99,,2013-05-25 23:12:00,
2013-05-25 19:22:00,85.0,66.0,30.14,ENE,62,8.0,14.0,52,-99.99,,,-99.99,,2013-05-25 23:22:00,
2013-05-25 19:32:00,85.0,66.0,30.14,ENE,62,8.0,14.0,52,-99.99,,,-99.99,,2013-05-25 23:32:00,
2013-05-25 19:42:00,84.0,66.0,30.14,NE,53,8.0,16.0,53,-99.99,,,-99.99,,2013-05-25 23:42:00,
2013-05-25 19:53:00,84.0,66.0,30.14,NE,53,8.0,16.0,53,-99.99,,,-99.99,,2013-05-25 23:53:00,
2013-05-25 20:02:00,82.0,65.0,30.15,ENE,65,6.0,14.0,56,-99.99,,,-99.99,,2013-05-26 00:02:00,
2013-05-25 20:12:00,82.0,65.0,30.15,ENE,65,6.0,14.0,56,-99.99,,,-99.99,,2013-05-26 00:12:00,
2013-05-25 20:22:00,82.0,65.0,30.15,ENE,73,7.0,13.0,57,-99.99,,,-99.99,,2013-05-26 00:22:00,
2013-05-25 20:32:00,80.0,65.0,30.16,ENE,72,5.0,12.0,58,-99.99,,,-99.99,,2013-05-26 00:32:00,
2013-05-25 20:42:00,80.0,65.0,30.16,ENE,72,5.0,12.0,58,-99.99,,,-99.99,,2013-05-26 00:42:00,
2013-05-25 20:53:00,80.0,65.0,30.16,ENE,72,5.0,12.0,58,-99.99,,,-99.99,,2013-05-26 00:53:00,
2013-05-25 21:01:00,78.0,65.0,30.16,ENE,67,4.0,8.0,63,-99.99,,,-99.99,,2013-05-26 01:01:00,
2013-05-25 21:11:00,78.0,65.0,30.16,ENE,67,4.0,8.0,63,-99.99,,,-99.99,,2013-05-26 01:11:00,
2013-05-25 21:21:00,78.0,65.0,30.17,ENE,78,5.0,9.0,64,-99.99,,,-99.99,,2013-05-26 01:21:00,
2013-05-25 21:32:00,78.0,65.0,30.17,ENE,78,5.0,9.0,64,-99.99,,,-99.99,,2013-05-26 01:32:00,
2013-05-25 21:42:00,77.0,65.0,30.17,ENE,75,4.0,9.0,65,-99.99,,,-99.99,,2013-05-26 01:42:00,
2013-05-25 21:53:00,77.0,65.0,30.17,ENE,75,4.0,9.0,65,-99.99,,,-99.99,,2013-05-26 01:53:00,
2013-05-25 22:02:00,76.0,65.0,30.19,ENE,72,5.0,9.0,68,-99.99,,,-99.99,,2013-05-26 02:02:00,
2013-05-25 22:11:00,76.0,65.0,30.19,ENE,72,5.0,9.0,68,-99.99,,,-99.99,,2013-05-26 02:11:00,
2013-05-25 22:21:00,75.0,65.0,30.20,ENE,69,5.0,9.0,71,-99.99,,,-99.99,,2013-05-26 02:21:00,
2013-05-25 22:32:00,75.0,65.0,30.20,ENE,69,5.0,9.0,71,-99.99,,,-99.99,,2013-05-26 02:32:00,
2013-05-25 22:42:00,75.0,65.0,30.20,ENE,75,6.0,11.0,71,-99.99,,,-99.99,,2013-05-26 02:42:00,
2013-05-25 22:52:00,75.0,65.0,30.20,ENE,75,6.0,11.0,71,-99.99,,,-99.99,,2013-05-26 02:52:00,
2013-05-25 23:01:00,74.0,65.0,30.22,ENE,77,5.0,10.0,73,-99.99,,,-99.99,,2013-05-26 03:01:00,
2013-05-25 23:11:00,74.0,65.0,30.22,East,83,5.0,12.0,74,-99.99,,,-99.99,,2013-05-26 03:11:00,
2013-05-25 23:22:00,74.0,65.0,30.22,East,83,5.0,12.0,74,-99.99,,,-99.99,,2013-05-26 03:22:00,
2013-05-25 23:33:00,74.0,65.0,30.22,East,83,5.0,12.0,74,-99.99,,,-99.99,,2013-05-26 03:33:00,
2013-05-25 23:43:00,73.0,65.0,30.22,East,83,4.0,9.0,75,-99.99,,,-99.99,,2013-05-26 03:43:00,
2013-05-25 23:53:00,73.0,65.0,30.22,East,83,4.0,9.0,75,-99.99,,,-99.99,,2013-05-26 03:53:00,